#timestamp,LO_Frequency,Hit,StdDev 
1503212415.3,286046998.5,N,1.1
1503212435.1,286047000.8,N,1.1
1503212455.9,286046998.2,N,1.1
1503212475.7,286047001.2,N,1.1
1503212495.6,286046998.2,N,1.1
1503212515.4,286046998.5,N,1.1
1503212535.2,286047000.5,N,1.1
1503212555.1,286047000.4,N,1.1
1503212556.0,286047000.4,N,1.1
1503212575.8,286047000.0,N,1.1
1503212595.7,286047000.3,N,1.1
1503212615.5,286047000.3,N,1.1
1503212635.3,286047000.0,N,1.1
1503212655.2,286047001.2,N,1.1
1503212675.0,286047000.7,N,1.1
1503212675.9,286047000.7,N,1.1
1503212695.8,286047000.2,N,1.1
1503212715.6,286047000.2,N,1.1
1503212735.4,286046999.7,N,1.1
1503212755.3,286046999.8,N,1.1
1503212775.1,286047000.2,N,1.0
1503212795.8,286046999.7,N,1.0
1503212815.7,286047002.8,N,1.2
1503212835.5,286047002.3,N,1.2
1503212855.4,286047002.6,N,1.3
1503212875.2,286046999.7,N,1.3
1503212895.0,286047000.1,N,1.2
1503212895.9,286047000.1,N,1.2
1503212915.8,286046999.8,N,1.1
1503212935.6,286046999.7,N,1.1
1503212955.5,286047002.8,N,1.1
1503212975.3,286047002.8,N,1.2
1503212995.1,286047000.4,N,1.1
1503213015.9,286047002.6,N,1.2
1503213035.7,286047002.1,N,1.1
1503213055.5,286047002.3,N,1.1
1503213075.4,286047000.3,N,1.1
1503213095.2,286047000.2,N,1.1
1503213115.1,286046999.9,N,1.1
1503213116.0,286046999.9,N,1.1
1503213135.8,286047002.2,N,1.1
1503213155.6,286047002.1,N,1.2
1503213175.5,286047002.2,N,1.2
1503213195.3,286047002.2,N,1.2
1503213215.2,286047002.8,N,1.2
1503213235.9,286047002.1,N,1.2
1503213255.7,286047002.1,N,1.2
1503213275.6,286047002.5,N,1.2
1503213295.4,286047001.8,N,1.2
1503213315.2,286047002.3,N,1.2
1503213335.1,286047002.5,N,1.2
1503213336.0,286047002.5,N,1.1
1503213355.8,286047001.7,N,1.1
1503213375.7,286047001.7,N,1.1
1503213395.5,286047004.0,Y,0.0
1503213415.3,286047000.1,P,0.7
1503213435.2,286046999.9,N,0.7
1503213455.0,286047000.1,N,0.7
1503213455.9,286047000.1,N,0.6
1503213475.8,286047000.2,N,0.5
1503213495.6,286047000.1,N,0.5
1503213515.4,286047000.4,N,0.5
1503213535.3,286047001.0,N,0.5
1503213555.1,286046999.9,N,0.5
1503213575.9,286047000.6,N,0.5
1503213595.7,286047000.7,N,0.5
1503213615.5,286047001.2,N,0.5
1503213635.4,286047000.6,N,0.5
1503213655.2,286047000.9,N,0.5
1503213675.0,286047000.4,N,0.5
1503213676.0,286047000.4,N,0.5
1503213695.8,286046999.9,N,0.5
1503213715.6,286047001.0,N,0.5
1503213735.5,286047001.2,N,0.5
1503213755.3,286047001.0,N,0.5
1503213775.1,286047000.9,N,0.5
1503213795.9,286047001.0,N,0.5
1503213815.7,286047000.1,N,0.5
1503213835.6,286047000.9,N,0.5
1503213855.4,286047000.0,N,0.5
1503213875.2,286047000.2,N,0.5
1503213895.1,286047000.9,N,0.5
1503213896.0,286047000.9,N,0.5
1503213915.8,286046999.9,N,0.5
1503213935.7,286047002.8,Y,0.0
1503213955.5,286046999.7,P,0.4
1503213975.3,286047000.5,N,0.4
1503213995.2,286047000.3,N,0.3
1503214015.0,286046999.9,N,0.3
1503214015.9,286046999.9,N,0.3
1503214035.7,286047000.7,N,0.4
1503214055.6,286047000.9,N,0.4
1503214075.4,286047000.8,N,0.4
1503214095.3,286047000.5,N,0.4
1503214115.1,286046998.3,Y,0.0
1503214135.9,286046998.6,P,0.9
1503214155.7,286046998.8,N,0.8
1503214175.5,286046998.5,N,0.8
1503214195.4,286046999.3,N,0.7
1503214215.2,286046998.4,N,0.7
1503214235.0,286046998.2,N,0.7
1503214235.9,286046998.2,N,0.7
1503214255.8,286046998.4,N,0.7
1503214275.6,286046996.8,Y,0.0
1503214295.5,286046997.0,P,0.9
1503214315.3,286046996.7,P,0.9
1503214335.1,286046997.1,P,0.8
1503214355.9,286046999.5,N,1.1
1503214375.7,286046998.7,N,1.1
1503214395.6,286046999.5,N,1.1
1503214415.4,286046997.1,N,1.1
1503214435.3,286046997.4,N,1.1
1503214455.1,286046996.8,Y,0.0
1503214475.8,286046998.6,P,0.3
1503214495.7,286046998.6,P,0.3
1503214515.5,286046999.4,N,0.5
1503214535.4,286046999.6,N,0.6
1503214555.2,286046999.2,N,0.6
1503214575.0,286046996.7,Y,0.0
1503214575.9,286046996.7,P,1.1
1503214595.8,286047001.2,N,1.8
1503214615.6,286047000.7,N,1.8
1503214635.5,286046998.6,N,1.6
1503214655.3,286046998.8,N,1.5
1503214675.1,286046996.7,N,1.6
1503214695.9,286046999.2,N,1.5
1503214715.7,286046996.6,N,1.6
1503214735.5,286046997.6,N,1.5
1503214755.4,286046997.0,N,1.5
1503214775.2,286046999.1,N,1.5
1503214795.1,286046999.3,N,1.4
1503214796.0,286046999.3,N,1.4
1503214815.8,286046996.7,N,1.4
1503214835.6,286046997.1,N,1.4
1503214855.5,286046999.6,N,1.4
1503214875.3,286046998.0,N,1.4
1503214895.2,286046995.6,Y,0.0
1503214915.9,286046998.9,P,0.3
1503214935.7,286046998.8,P,0.2
1503214955.6,286046996.6,P,0.9
1503214975.4,286046999.4,N,1.0
1503214995.3,286046999.2,N,0.9
1503215015.1,286046996.7,Y,0.0
1503215016.0,286046996.7,P,0.9
1503215035.8,286046996.9,P,0.8
1503215055.7,286046996.6,P,0.8
1503215075.5,286046999.5,N,1.2
1503215095.4,286046998.4,N,1.1
1503215115.2,286046996.9,N,1.1
1503215135.0,286046999.4,N,1.2
1503215135.9,286046999.4,N,1.2
1503215155.8,286046996.9,N,1.2
1503215175.6,286046996.7,N,1.2
1503215195.4,286046996.6,N,1.2
1503215215.3,286046996.9,N,1.1
1503215235.1,286046996.6,N,1.1
1503215255.9,286046999.1,N,1.2
1503215275.7,286046999.2,N,1.2
1503215295.5,286046996.7,N,1.2
1503215315.4,286046996.7,N,1.2
1503215335.2,286046997.5,N,1.1
1503215355.1,286046997.6,N,1.1
1503215356.0,286046997.6,N,1.1
1503215375.8,286046998.0,N,1.1
1503215395.6,286046997.6,N,1.0
1503215415.5,286046995.8,Y,0.0
1503215435.3,286046997.2,P,0.2
1503215455.1,286046997.2,P,0.2
1503215475.9,286046997.4,P,0.2
1503215495.7,286046997.8,Y,0.0
1503215515.6,286047001.1,P,1.9
1503215535.4,286046998.6,N,1.6
1503215555.2,286046998.2,N,1.4
1503215575.1,286047001.2,N,1.6
1503215576.0,286047001.2,N,1.6
1503215595.8,286047001.1,N,1.6
1503215615.7,286047000.5,N,1.5
1503215635.5,286046999.8,N,1.4
1503215655.3,286047001.1,N,1.4
1503215675.2,286047000.4,N,1.3
1503215695.0,286046998.4,N,1.3
1503215695.9,286046998.4,N,1.4
1503215715.8,286046998.1,N,1.4
1503215735.6,286046999.4,N,1.3
1503215755.4,286046998.8,N,1.3
1503215775.3,286047001.2,N,1.3
1503215795.1,286046998.5,N,1.3
1503215815.8,286046999.1,N,1.3
1503215835.7,286046998.7,N,1.3
1503215855.5,286046998.3,N,1.3
1503215875.4,286046998.5,N,1.3
1503215895.2,286046998.9,N,1.2
1503215915.0,286046999.2,N,1.2
1503215915.9,286046999.2,N,1.2
1503215935.8,286046999.3,N,1.2
1503215955.6,286046998.1,N,1.2
1503215975.5,286047001.0,N,1.2
1503215995.3,286047001.2,N,1.2
